Location: Carnoy
(49.9849°N, 2.7558°E)
Time: 22:42:34
(UTC+00:00)

NOAA 11 - Pass Details

Date: 24 January 2020
Orbit: 832 x 850 km, 98.4° (Epoch: 16 February)

Event Time Altitude Azimuth Distance (km) Brightness Sun altitude
Rises 17:53:15 0° 152° (SSE) 3,403 7.2 -13.4°
Reaches altitude 10° 17:55:38 10° 149° (SSE) 2,470 6.5 -13.7°
Maximum altitude 18:01:02 63° 70° (ENE) 948 4.2 -14.6°
Drops below altitude 10° 18:06:27 10° 351° (N) 2,478 6.6 -15.4°
Sets 18:08:50 0° 348° (NNW) 3,415 7.4 -15.8°
